GSAT0205 (GALILEO 9)

Last updated on Fri Jun 19 2026 17:09:21 GMT+0000 (Coordinated Universal Time)

1 40889U 15045A 26144.30399159 -.00000014 00000+0 00000+0 0 9994 2 40889 54.9357 222.4171 0006405 263.0112 96.9692 1.67409242 66562

Satellite not in orbit

GSAT0205 (GALILEO 9)